Location: Czekanka
(50.4925°N, 19.2643°E)
Time: 13:02:35
(UTC+00:00)

CENTAUR R/B - Pass Details

Date: 15 June 2024
Orbit: 666 x 1519 km, 63.4° (Epoch: 15 July)

Event Time Altitude Azimuth Distance (km) Brightness Sun altitude
Exits shadow 00:12:03 16° 227° (SW) 2,139 3.8 -13.6°
Maximum altitude 00:16:53 83° 314° (NW) 1,010 2.6 -13.4°
Drops below altitude 10° 00:24:15 10° 44° (NE) 3,109 6.3 -12.9°
Sets 00:27:18 0° 45° (NE) 4,207 7.2 -12.7°
